,,PA_Meas_PMT16A,,PR_Meas_QMR101_102,,RH_Meas_QMH101,,SR_Meas_QMS101,,TA_Meas_QMH101,,GenWind,,GenWind,
time,status,PA,status,PR,status,RH,status,SR,status,TA,status,DirAvg,status,SpdAvg,
2014-10-27, 06:44:04,VALID,917.574,VALID,0,VALID,97.6788,VALID,60.3819,VALID,20.0538,VALID,90,VALID,0,
2014-10-27, 06:45:04,VALID,917.604,VALID,0,VALID,97.6636,VALID,58.8778,VALID,20.0928,VALID,90,VALID,0,
2014-10-27, 06:46:04,VALID,917.599,VALID,0,VALID,97.6483,VALID,60.0596,VALID,20.1318,VALID,90,VALID,0,
2014-10-27, 06:47:04,VALID,917.621,VALID,0,VALID,97.6483,VALID,61.7787,VALID,20.1513,VALID,90,VALID,0,
2014-10-27, 06:48:04,VALID,917.679,VALID,0,VALID,97.6407,VALID,63.9275,VALID,20.1693,VALID,90,VALID,0,
2014-10-27, 06:49:04,VALID,917.707,VALID,0,VALID,97.6483,VALID,65.8614,VALID,20.2098,VALID,90,VALID,0,
2014-10-27, 06:50:04,VALID,917.695,VALID,0,VALID,97.6331,VALID,69.7293,VALID,20.2684,VALID,90,VALID,0,
2014-10-27, 06:51:04,VALID,917.684,VALID,0,VALID,97.6483,VALID,68.6549,VALID,20.2879,VALID,90,VALID,0,
2014-10-27, 06:52:04,VALID,917.693,VALID,0,VALID,97.6178,VALID,68.6549,VALID,20.3464,VALID,42,VALID,0,
2014-10-27, 06:53:04,VALID,917.706,VALID,0,VALID,97.6178,VALID,67.9028,VALID,20.4244,VALID,84,VALID,0,
2014-10-27, 06:54:04,VALID,917.671,VALID,0,VALID,97.595,VALID,68.5475,VALID,20.5024,VALID,84,VALID,0,
2014-10-27, 06:55:04,VALID,917.679,VALID,0,VALID,97.5797,VALID,69.0847,VALID,20.4829,VALID,82,VALID,0,
2014-10-27, 06:56:04,VALID,917.722,VALID,0,VALID,97.5873,VALID,70.1591,VALID,20.4634,VALID,105,VALID,0,
2014-10-27, 06:57:04,VALID,917.705,VALID,0,VALID,97.5492,VALID,71.6632,VALID,20.5024,VALID,105,VALID,0,
2014-10-27, 06:58:04,VALID,917.734,VALID,0,VALID,97.5111,VALID,73.3823,VALID,20.5219,VALID,105,VALID,0,
2014-10-27, 06:59:04,VALID,917.717,VALID,0,VALID,97.5035,VALID,75.4237,VALID,20.5414,VALID,138,VALID,0,
2014-10-27, 07:00:04,VALID,917.745,VALID,0,VALID,97.4501,VALID,78.2172,VALID,20.5414,VALID,171,VALID,0,
2014-10-27, 07:01:04,VALID,917.773,VALID,0,VALID,97.3891,VALID,81.8702,VALID,20.5999,VALID,167,VALID,0,
2014-10-27, 07:02:04,VALID,917.775,VALID,0,VALID,97.3281,VALID,85.5232,VALID,20.5999,VALID,150,VALID,0.0984375,
2014-10-27, 07:03:04,VALID,917.761,VALID,0,VALID,97.229,VALID,89.0687,VALID,20.6975,VALID,165,VALID,0,
2014-10-27, 07:04:04,VALID,917.796,VALID,0,VALID,97.1376,VALID,93.044,VALID,20.7755,VALID,165,VALID,0,
2014-10-27, 07:05:04,VALID,917.788,VALID,0,VALID,97.0385,VALID,97.4491,VALID,20.8145,VALID,165,VALID,0,
2014-10-27, 07:06:04,VALID,917.794,VALID,0,VALID,96.9089,VALID,101.747,VALID,20.873,VALID,165,VALID,0,
2014-10-27, 07:07:04,VALID,917.785,VALID,0,VALID,96.7564,VALID,106.689,VALID,20.912,VALID,165,VALID,0,
2014-10-27, 07:08:04,VALID,917.824,VALID,0,VALID,96.5506,VALID,111.202,VALID,20.9511,VALID,178,VALID,0,
2014-10-27, 07:09:04,VALID,917.869,VALID,0,VALID,96.2609,VALID,116.036,VALID,20.9885,VALID,178,VALID,0,
2014-10-27, 07:10:04,VALID,917.947,VALID,0,VALID,95.895,VALID,125.599,VALID,21.0275,VALID,178,VALID,0,
2014-10-27, 07:11:04,VALID,918.013,VALID,0,VALID,95.3384,VALID,140.103,VALID,21.1055,VALID,178,VALID,0,
2014-10-27, 07:12:04,VALID,918.059,VALID,0,VALID,94.6523,VALID,151.492,VALID,21.1836,VALID,178,VALID,0,
2014-10-27, 07:13:04,VALID,918.085,VALID,0,VALID,93.3564,VALID,158.905,VALID,21.3006,VALID,178,VALID,0,
2014-10-27, 07:14:04,VALID,918.131,VALID,0,VALID,92.0146,VALID,153.533,VALID,21.3981,VALID,178,VALID,0,
2014-10-27, 07:15:04,VALID,918.14,VALID,0,VALID,91.1684,VALID,161.484,VALID,21.5136,VALID,178,VALID,0,
2014-10-27, 07:16:04,VALID,918.211,VALID,0,VALID,89.8801,VALID,158.798,VALID,21.6518,VALID,178,VALID,0,
2014-10-27, 07:17:04,VALID,918.214,VALID,0,VALID,88.8814,VALID,112.061,VALID,21.7883,VALID,178,VALID,0,
2014-10-27, 07:18:04,VALID,918.234,VALID,0,VALID,88.7137,VALID,112.061,VALID,21.8681,VALID,177,VALID,0,
2014-10-27, 07:19:04,VALID,918.284,VALID,0,VALID,87.7989,VALID,120.871,VALID,21.9054,VALID,144,VALID,0,
2014-10-27, 07:20:04,VALID,918.326,VALID,0,VALID,88.2944,VALID,147.087,VALID,21.9835,VALID,144,VALID,0,
2014-10-27, 07:21:04,VALID,918.347,VALID,0,VALID,87.5168,VALID,159.013,VALID,22.0225,VALID,144,VALID,0,
2014-10-27, 07:22:04,VALID,918.34,VALID,0,VALID,87.6388,VALID,199.518,VALID,22.0615,VALID,144,VALID,0,
2014-10-27, 07:23:04,VALID,918.36,VALID,0,VALID,86.9908,VALID,180.286,VALID,22.1201,VALID,145,VALID,0,
2014-10-27, 07:24:04,VALID,918.395,VALID,0,VALID,86.9298,VALID,133.872,VALID,22.1396,VALID,144,VALID,0,
2014-10-27, 07:25:04,VALID,918.364,VALID,0,VALID,85.7177,VALID,152.029,VALID,22.1591,VALID,146,VALID,0,
2014-10-27, 07:26:04,VALID,918.398,VALID,0,VALID,85.9083,VALID,133.334,VALID,22.1981,VALID,181,VALID,0,
2014-10-27, 07:27:04,VALID,918.456,VALID,0,VALID,85.2374,VALID,129.359,VALID,22.1608,VALID,158,VALID,0,
2014-10-27, 07:28:04,VALID,918.475,VALID,0,VALID,85.3594,VALID,130.434,VALID,22.1803,VALID,158,VALID,0,
2014-10-27, 07:29:04,VALID,918.529,VALID,0,VALID,86.2208,VALID,193.072,VALID,22.1786,VALID,158,VALID,0,
2014-10-27, 07:30:04,VALID,918.561,VALID,0,VALID,86.5715,VALID,223.8,VALID,22.2371,VALID,158,VALID,0,
2014-10-27, 07:31:04,VALID,918.598,VALID,0,VALID,85.6338,VALID,235.618,VALID,22.2779,VALID,158,VALID,0,
2014-10-27, 07:32:04,VALID,918.588,VALID,0,VALID,86.3962,VALID,247.115,VALID,22.2957,VALID,165,VALID,0,
2014-10-27, 07:33:04,VALID,918.569,VALID,0,VALID,85.9388,VALID,176.741,VALID,22.3737,VALID,165,VALID,0,
2014-10-27, 07:34:04,VALID,918.558,VALID,0,VALID,85.4509,VALID,161.591,VALID,22.4323,VALID,165,VALID,0,
2014-10-27, 07:35:04,VALID,918.592,VALID,0,VALID,85.6491,VALID,152.566,VALID,22.4713,VALID,165,VALID,0,
2014-10-27, 07:36:04,VALID,918.571,VALID,0,VALID,83.5603,VALID,145.475,VALID,22.4713,VALID,165,VALID,0,
2014-10-27, 07:37:04,VALID,918.599,VALID,0,VALID,84.8867,VALID,143.004,VALID,22.5689,VALID,165,VALID,0,
2014-10-27, 07:38:04,VALID,918.607,VALID,0,VALID,83.8652,VALID,138.169,VALID,22.5689,VALID,162,VALID,0,
2014-10-27, 07:39:04,VALID,918.661,VALID,0,VALID,83.0571,VALID,130.756,VALID,22.5103,VALID,141,VALID,0,
2014-10-27, 07:40:04,VALID,918.639,VALID,0,VALID,82.1347,VALID,123.342,VALID,22.4306,VALID,140,VALID,0,
2014-10-27, 07:41:04,VALID,918.639,VALID,0,VALID,82.4472,VALID,113.78,VALID,22.4128,VALID,140,VALID,0,
2014-10-27, 07:42:04,VALID,918.669,VALID,0,VALID,84.254,VALID,109.375,VALID,22.4128,VALID,140,VALID,0,
2014-10-27, 07:43:04,VALID,918.677,VALID,0,VALID,84.8029,VALID,108.408,VALID,22.4323,VALID,140,VALID,0,
2014-10-27, 07:44:04,VALID,918.694,VALID,0,VALID,84.8105,VALID,110.664,VALID,22.3737,VALID,139,VALID,0,
2014-10-27, 07:45:04,VALID,918.7,VALID,0,VALID,85.0163,VALID,114.425,VALID,22.3542,VALID,146,VALID,0,
2014-10-27, 07:46:04,VALID,918.722,VALID,0,VALID,84.3607,VALID,115.284,VALID,22.3135,VALID,148,VALID,0,
2014-10-27, 07:47:04,VALID,918.744,VALID,0,VALID,84.902,VALID,109.16,VALID,22.372,VALID,147,VALID,0,
2014-10-27, 07:48:04,VALID,918.734,VALID,0,VALID,84.9096,VALID,103.788,VALID,22.3916,VALID,147,VALID,0,
2014-10-27, 07:49:04,VALID,918.756,VALID,0,VALID,85.0545,VALID,103.681,VALID,22.4518,VALID,147,VALID,0,
2014-10-27, 07:50:04,VALID,918.773,VALID,0,VALID,86.2437,VALID,104.54,VALID,22.4713,VALID,91,VALID,0,
2014-10-27, 07:51:04,VALID,918.787,VALID,0,VALID,85.0011,VALID,102.069,VALID,22.4518,VALID,115,VALID,0,
2014-10-27, 07:52:04,VALID,918.808,VALID,0,VALID,85.0621,VALID,97.0194,VALID,22.4518,VALID,140,VALID,0,
2014-10-27, 07:53:04,VALID,918.781,VALID,0,VALID,84.8486,VALID,97.3417,VALID,22.4518,VALID,135,VALID,0,
2014-10-27, 07:54:04,VALID,918.795,VALID,0,VALID,83.6441,VALID,103.251,VALID,22.4518,VALID,131,VALID,0.0492188,
2014-10-27, 07:55:04,VALID,918.812,VALID,0,VALID,82.836,VALID,104.755,VALID,22.4908,VALID,129,VALID,0.335938,
2014-10-27, 07:56:04,VALID,918.829,VALID,0,VALID,84.2464,VALID,107.011,VALID,22.4891,VALID,124,VALID,0,
2014-10-27, 07:57:04,VALID,918.848,VALID,0,VALID,84.7419,VALID,109.912,VALID,22.4908,VALID,143,VALID,0.00273437,
2014-10-27, 07:58:04,VALID,918.832,VALID,0,VALID,85.5119,VALID,116.896,VALID,22.4111,VALID,159,VALID,0,
2014-10-27, 07:59:04,VALID,918.826,VALID,0,VALID,85.4356,VALID,125.921,VALID,22.3542,VALID,170,VALID,0,
2014-10-27, 08:00:04,VALID,918.84,VALID,0,VALID,86.137,VALID,129.789,VALID,22.3542,VALID,162,VALID,0,
2014-10-27, 08:01:04,VALID,918.86,VALID,0,VALID,86.2437,VALID,120.012,VALID,22.3347,VALID,165,VALID,0,
2014-10-27, 08:02:04,VALID,918.856,VALID,0,VALID,85.9007,VALID,106.582,VALID,22.3347,VALID,164,VALID,0,
2014-10-27, 08:03:04,VALID,918.872,VALID,0,VALID,86.4495,VALID,96.2673,VALID,22.3347,VALID,147,VALID,0,
2014-10-27, 08:04:04,VALID,918.863,VALID,0,VALID,86.8917,VALID,89.6059,VALID,22.3933,VALID,169,VALID,0,
2014-10-27, 08:05:04,VALID,918.865,VALID,0,VALID,86.7621,VALID,83.9115,VALID,22.3933,VALID,162,VALID,0,
2014-10-27, 08:06:04,VALID,918.894,VALID,0,VALID,85.6262,VALID,79.9362,VALID,22.3347,VALID,165,VALID,0,
2014-10-27, 08:07:04,VALID,918.933,VALID,0,VALID,85.8854,VALID,76.9279,VALID,22.2957,VALID,143,VALID,0,
2014-10-27, 08:08:04,VALID,918.93,VALID,0,VALID,86.2742,VALID,73.06,VALID,22.2567,VALID,143,VALID,0,
2014-10-27, 08:09:04,VALID,918.956,VALID,0,VALID,85.9388,VALID,69.5144,VALID,22.1981,VALID,166,VALID,0,
2014-10-27, 08:10:04,VALID,918.987,VALID,0,VALID,86.1827,VALID,68.3326,VALID,22.1396,VALID,143,VALID,0,
2014-10-27, 08:11:04,VALID,918.999,VALID,0,VALID,87.0442,VALID,70.8037,VALID,22.1201,VALID,137,VALID,0,
2014-10-27, 08:12:04,VALID,918.982,VALID,0,VALID,87.0823,VALID,78.432,VALID,22.0615,VALID,124,VALID,0.0914062,
2014-10-27, 08:13:04,VALID,918.983,VALID,0,VALID,87.1051,VALID,82.4074,VALID,22.0615,VALID,126,VALID,0,
2014-10-27, 08:14:04,VALID,918.996,VALID,0,VALID,87.1966,VALID,79.1841,VALID,22.081,VALID,130,VALID,0,
2014-10-27, 08:15:04,VALID,919.007,VALID,0,VALID,87.128,VALID,72.6302,VALID,22.0615,VALID,128,VALID,0.00273437,
2014-10-27, 08:16:04,VALID,919.03,VALID,0,VALID,86.5029,VALID,68.44,VALID,22.0615,VALID,122,VALID,0.571094,
2014-10-27, 08:17:04,VALID,919.018,VALID,0,VALID,86.2132,VALID,69.0847,VALID,22.0225,VALID,128,VALID,0.704297,
2014-10-27, 08:18:04,VALID,919.025,VALID,0,VALID,87.2271,VALID,71.9856,VALID,22.0225,VALID,137,VALID,0,
2014-10-27, 08:19:04,VALID,919.049,VALID,0,VALID,87.9513,VALID,78.8618,VALID,22.003,VALID,131,VALID,0,
2014-10-27, 08:20:04,VALID,919.031,VALID,0,VALID,88.3097,VALID,97.0194,VALID,22.003,VALID,142,VALID,0,
2014-10-27, 08:21:04,VALID,919.031,VALID,0,VALID,87.9056,VALID,114.317,VALID,21.9835,VALID,139,VALID,0,
2014-10-27, 08:22:04,VALID,919.026,VALID,0,VALID,87.6693,VALID,127.64,VALID,22.003,VALID,132,VALID,0,
2014-10-27, 08:23:04,VALID,919.018,VALID,0,VALID,87.9437,VALID,136.773,VALID,22.0437,VALID,141,VALID,0,
2014-10-27, 08:24:04,VALID,919.009,VALID,0,VALID,87.9971,VALID,134.194,VALID,22.0225,VALID,136,VALID,0.446875,
2014-10-27, 08:25:04,VALID,919.036,VALID,0,VALID,88.8509,VALID,123.342,VALID,22.0632,VALID,128,VALID,0,
2014-10-27, 08:26:04,VALID,919.085,VALID,0,VALID,89.072,VALID,106.689,VALID,22.0047,VALID,126,VALID,0.163672,
2014-10-27, 08:27:04,VALID,919.111,VALID,0,VALID,89.5218,VALID,88.8538,VALID,21.9835,VALID,115,VALID,0.624219,
2014-10-27, 08:28:04,VALID,919.128,VALID,0,VALID,90.1012,VALID,79.1841,VALID,21.9249,VALID,138,VALID,0.00585938,
2014-10-27, 08:29:04,VALID,919.154,VALID,0,VALID,90.6577,VALID,77.2502,VALID,21.8664,VALID,141,VALID,0,
2014-10-27, 08:30:04,VALID,919.136,VALID,0,VALID,91.4581,VALID,75.2088,VALID,21.8469,VALID,144,VALID,0.040625,
2014-10-27, 08:31:04,VALID,919.148,VALID,0,VALID,91.3438,VALID,66.6135,VALID,21.7688,VALID,150,VALID,0,
2014-10-27, 08:32:04,VALID,919.185,VALID,0.2,VALID,91.4581,VALID,60.167,VALID,21.7103,VALID,123,VALID,0.0816406,
2014-10-27, 08:33:04,VALID,919.199,VALID,0,VALID,91.3743,VALID,57.481,VALID,21.6323,VALID,132,VALID,0.566797,
2014-10-27, 08:34:04,VALID,919.183,VALID,0,VALID,91.5725,VALID,56.1917,VALID,21.6128,VALID,127,VALID,0.00664063,
2014-10-27, 08:35:04,VALID,919.205,VALID,0,VALID,91.7326,VALID,59.2001,VALID,21.5932,VALID,127,VALID,0.7125,
2014-10-27, 08:36:04,VALID,919.238,VALID,0,VALID,92.1061,VALID,70.8037,VALID,21.5737,VALID,125,VALID,0.0121094,
2014-10-27, 08:37:04,VALID,919.243,VALID,0,VALID,92.0756,VALID,92.8292,VALID,21.5347,VALID,118,VALID,0.689062,
2014-10-27, 08:38:04,VALID,919.201,VALID,0,VALID,92.3882,VALID,139.996,VALID,21.4957,VALID,121,VALID,0,
2014-10-27, 08:39:04,VALID,919.194,VALID,0.2,VALID,92.838,VALID,224.874,VALID,21.5347,VALID,167,VALID,0,
2014-10-27, 08:40:04,VALID,919.191,VALID,0,VALID,93.5469,VALID,383.672,VALID,21.5737,VALID,175,VALID,0.149219,
2014-10-27, 08:41:04,VALID,919.166,VALID,0,VALID,92.2967,VALID,586.199,VALID,21.5932,VALID,153,VALID,0,
2014-10-27, 08:42:04,VALID,919.171,VALID,0,VALID,94.0425,VALID,490.791,VALID,21.8859,VALID,150,VALID,0,
2014-10-27, 08:43:04,VALID,919.143,VALID,0,VALID,94.0577,VALID,405.053,VALID,22.1005,VALID,150,VALID,0,
2014-10-27, 08:44:04,VALID,919.145,VALID,0,VALID,88.6222,VALID,362.614,VALID,22.1591,VALID,141,VALID,0,
2014-10-27, 08:45:04,VALID,919.144,VALID,0,VALID,87.0975,VALID,297.075,VALID,22.3152,VALID,130,VALID,0,
2014-10-27, 08:46:04,VALID,919.126,VALID,0,VALID,86.8383,VALID,267.958,VALID,22.4323,VALID,98,VALID,0.00625,
2014-10-27, 08:47:04,VALID,919.124,VALID,0,VALID,87.7303,VALID,258.826,VALID,22.4518,VALID,64,VALID,0.469141,
2014-10-27, 08:48:04,VALID,919.103,VALID,0,VALID,87.1433,VALID,282.355,VALID,22.4518,VALID,96,VALID,0.998047,
2014-10-27, 08:49:04,VALID,919.082,VALID,0,VALID,86.3809,VALID,245.181,VALID,22.4128,VALID,83,VALID,0.807813,
2014-10-27, 08:50:04,VALID,919.077,VALID,0,VALID,86.3504,VALID,227.131,VALID,22.3737,VALID,96,VALID,0.0347656,
2014-10-27, 08:51:04,VALID,919.063,VALID,0,VALID,87.0518,VALID,210.692,VALID,22.3135,VALID,91,VALID,0,
2014-10-27, 08:52:04,VALID,919.016,VALID,0,VALID,87.9742,VALID,203.708,VALID,22.3135,VALID,118,VALID,0,
2014-10-27, 08:53:04,VALID,919.021,VALID,0,VALID,87.2576,VALID,200.055,VALID,22.2745,VALID,98,VALID,0,
2014-10-27, 08:54:04,VALID,919.01,VALID,0,VALID,87.9742,VALID,201.882,VALID,22.2762,VALID,113,VALID,0,
2014-10-27, 08:55:04,VALID,919.031,VALID,0,VALID,87.3186,VALID,209.618,VALID,22.1981,VALID,126,VALID,0.469922,
2014-10-27, 08:56:04,VALID,919.043,VALID,0,VALID,88.3859,VALID,220.577,VALID,22.2176,VALID,106,VALID,0.555078,
2014-10-27, 08:57:04,VALID,919.045,VALID,0,VALID,88.5917,VALID,225.304,VALID,22.2567,VALID,105,VALID,0.000390625,
2014-10-27, 08:58:04,VALID,919.042,VALID,0,VALID,87.4482,VALID,218.535,VALID,22.2567,VALID,73,VALID,0,
2014-10-27, 08:59:04,VALID,919.053,VALID,0,VALID,87.4482,VALID,213.486,VALID,22.2957,VALID,121,VALID,0.510547,
2014-10-27, 09:00:04,VALID,919.07,VALID,0,VALID,88.5307,VALID,218.106,VALID,22.3135,VALID,110,VALID,0,
2014-10-27, 09:01:04,VALID,919.068,VALID,0,VALID,88.7137,VALID,230.676,VALID,22.372,VALID,86,VALID,0.0195313,
2014-10-27, 09:02:04,VALID,919.13,VALID,0,VALID,88.3249,VALID,235.618,VALID,22.4306,VALID,129,VALID,0.296875,
2014-10-27, 09:03:04,VALID,919.105,VALID,0,VALID,87.433,VALID,232.395,VALID,22.3525,VALID,125,VALID,0.276953,
2014-10-27, 09:04:04,VALID,919.118,VALID,0,VALID,88.1801,VALID,231.536,VALID,22.333,VALID,95,VALID,1.02109,
2014-10-27, 09:05:04,VALID,919.128,VALID,0,VALID,88.3706,VALID,238.412,VALID,22.3135,VALID,114,VALID,1.52188,
2014-10-27, 09:06:04,VALID,919.122,VALID,0,VALID,88.6527,VALID,260.652,VALID,22.333,VALID,99,VALID,0.421484,
2014-10-27, 09:07:04,VALID,919.12,VALID,0,VALID,88.2182,VALID,534.197,VALID,22.333,VALID,110,VALID,1.3125,
2014-10-27, 09:08:04,VALID,919.102,VALID,0,VALID,88.2182,VALID,535.916,VALID,22.3916,VALID,108,VALID,1.23008,
2014-10-27, 09:09:04,VALID,919.115,VALID,0,VALID,88.1038,VALID,712.335,VALID,22.5477,VALID,90,VALID,1.975,
2014-10-27, 09:10:04,VALID,919.132,VALID,0,VALID,86.7545,VALID,743.385,VALID,22.6435,VALID,106,VALID,2.23945,
2014-10-27, 09:11:04,VALID,919.114,VALID,0,VALID,87.5473,VALID,669.788,VALID,22.9575,VALID,107,VALID,0.293359,
2014-10-27, 09:12:04,VALID,919.146,VALID,0,VALID,83.9033,VALID,693.855,VALID,23.1136,VALID,118,VALID,2.5957,
2014-10-27, 09:13:04,VALID,919.142,VALID,0,VALID,84.6657,VALID,465.328,VALID,23.2485,VALID,108,VALID,1.44492,
2014-10-27, 09:14:04,VALID,919.151,VALID,0,VALID,84.2616,VALID,437.5,VALID,23.4454,VALID,57,VALID,1.26133,
2014-10-27, 09:15:04,VALID,919.186,VALID,0,VALID,84.7419,VALID,475.642,VALID,23.6016,VALID,114,VALID,0.813281,
2014-10-27, 09:16:04,VALID,919.098,VALID,0,VALID,79.375,VALID,746.394,VALID,23.6797,VALID,76,VALID,3.86992,
2014-10-27, 09:17:04,VALID,919.093,VALID,0,VALID,79.192,VALID,382.491,VALID,23.7578,VALID,62,VALID,2.3332,
2014-10-27, 09:18:04,VALID,919.171,VALID,0,VALID,81.1055,VALID,412.896,VALID,23.8163,VALID,56,VALID,1.89414,
2014-10-27, 09:19:04,VALID,919.18,VALID,0,VALID,77.9952,VALID,731.352,VALID,23.8145,VALID,46,VALID,3.19883,
2014-10-27, 09:20:04,VALID,919.155,VALID,0,VALID,79.5503,VALID,764.336,VALID,23.8926,VALID,56,VALID,2.30469,
2014-10-27, 09:21:04,VALID,919.199,VALID,0,VALID,79.4055,VALID,768.312,VALID,24.111,VALID,96,VALID,1.89141,
2014-10-27, 09:22:04,VALID,919.193,VALID,0,VALID,76.5467,VALID,777.659,VALID,24.2654,VALID,70,VALID,2.54063,
2014-10-27, 09:23:04,VALID,919.254,VALID,0,VALID,77.553,VALID,503.899,VALID,24.2849,VALID,80,VALID,2.21523,
2014-10-27, 09:24:04,VALID,919.25,VALID,0,VALID,76.2799,VALID,786.039,VALID,24.3435,VALID,91,VALID,3.29023,
2014-10-27, 09:25:04,VALID,919.239,VALID,0,VALID,75.8301,VALID,793.56,VALID,24.3825,VALID,54,VALID,1.79336,
2014-10-27, 09:26:04,VALID,919.244,VALID,0,VALID,74.7933,VALID,786.254,VALID,24.4411,VALID,65,VALID,1.39102,
2014-10-27, 09:27:04,VALID,919.254,VALID,0,VALID,76.5238,VALID,792.271,VALID,24.6559,VALID,43,VALID,2.65313,
2014-10-27, 09:28:04,VALID,919.267,VALID,0,VALID,74.0386,VALID,790.015,VALID,24.6735,VALID,57,VALID,2.73945,
2014-10-27, 09:29:04,VALID,919.238,VALID,0,VALID,71.7745,VALID,778.733,VALID,24.654,VALID,80,VALID,3.1125,
2014-10-27, 09:30:04,VALID,919.302,VALID,0,VALID,73.2,VALID,757.568,VALID,24.5954,VALID,50,VALID,3.47383,
2014-10-27, 09:31:04,VALID,919.255,VALID,0,VALID,73.0095,VALID,747.253,VALID,24.5368,VALID,50,VALID,2.16602,
2014-10-27, 09:32:04,VALID,919.272,VALID,0,VALID,77.0117,VALID,748.005,VALID,24.6949,VALID,42,VALID,0.924219,
2014-10-27, 09:33:04,VALID,919.249,VALID,0,VALID,77.1718,VALID,737.798,VALID,24.9859,VALID,83,VALID,0.000390625,
2014-10-27, 09:34:04,VALID,919.279,VALID,0,VALID,71.3552,VALID,720.071,VALID,25.2417,VALID,88,VALID,1.25273,
2014-10-27, 09:35:04,VALID,919.284,VALID,0,VALID,73.4516,VALID,700.516,VALID,25.2398,VALID,89,VALID,0.336719,
2014-10-27, 09:36:04,VALID,919.246,VALID,0,VALID,72.4682,VALID,704.707,VALID,25.1812,VALID,126,VALID,2.30625,
2014-10-27, 09:37:04,VALID,919.317,VALID,0,VALID,71.8202,VALID,689.772,VALID,25.064,VALID,103,VALID,2.12891,
2014-10-27, 09:38:04,VALID,919.235,VALID,0,VALID,71.8964,VALID,676.235,VALID,25.0445,VALID,88,VALID,1.75,
2014-10-27, 09:39:04,VALID,919.28,VALID,0,VALID,74.153,VALID,674.086,VALID,25.0426,VALID,112,VALID,1.025,
2014-10-27, 09:40:04,VALID,919.259,VALID,0,VALID,74.8391,VALID,683.755,VALID,25.2593,VALID,92,VALID,1.31562,
2014-10-27, 09:41:04,VALID,919.304,VALID,0,VALID,68.4735,VALID,693.425,VALID,25.2398,VALID,59,VALID,1.73359,
2014-10-27, 09:42:04,VALID,919.295,VALID,0,VALID,72.5902,VALID,709.649,VALID,25.1598,VALID,38,VALID,2.17656,
2014-10-27, 09:43:04,VALID,919.228,VALID,0,VALID,70.3489,VALID,719.856,VALID,25.0621,VALID,67,VALID,2.08164,
2014-10-27, 09:44:04,VALID,919.235,VALID,0,VALID,71.3399,VALID,737.046,VALID,25.0055,VALID,96,VALID,0.455078,
2014-10-27, 09:45:04,VALID,919.254,VALID,0,VALID,73.383,VALID,754.989,VALID,25.1793,VALID,95,VALID,0.547266,
2014-10-27, 09:46:04,VALID,919.244,VALID,0,VALID,72.4606,VALID,765.733,VALID,25.357,VALID,127,VALID,0,
2014-10-27, 09:47:04,VALID,919.213,VALID,0,VALID,72.1785,VALID,770.461,VALID,25.6499,VALID,85,VALID,0.0460938,
2014-10-27, 09:48:04,VALID,919.22,VALID,0,VALID,70.1888,VALID,773.469,VALID,25.728,VALID,103,VALID,1.69062,
2014-10-27, 09:49:04,VALID,919.202,VALID,0,VALID,70.326,VALID,777.122,VALID,25.728,VALID,175,VALID,0.982422,
2014-10-27, 09:50:04,VALID,919.192,VALID,0,VALID,69.0453,VALID,768.204,VALID,25.8843,VALID,174,VALID,0.217969,
2014-10-27, 09:51:04,VALID,919.169,VALID,0,VALID,69.3502,VALID,780.023,VALID,25.9429,VALID,138,VALID,1.34531,
2014-10-27, 09:52:04,VALID,919.201,VALID,0,VALID,68.1076,VALID,448.352,VALID,26.0992,VALID,61,VALID,2.49648,
2014-10-27, 09:53:04,VALID,919.217,VALID,0,VALID,67.7188,VALID,733.178,VALID,25.98,VALID,74,VALID,2.81484,
2014-10-27, 09:54:04,VALID,919.206,VALID,0,VALID,67.5282,VALID,775.51,VALID,25.8062,VALID,71,VALID,1.41328,
2014-10-27, 09:55:04,VALID,919.229,VALID,0,VALID,67.4825,VALID,788.726,VALID,25.7476,VALID,49,VALID,2.03945,
2014-10-27, 09:56:04,VALID,919.209,VALID,0,VALID,70.387,VALID,760.361,VALID,25.7261,VALID,79,VALID,0.640234,
2014-10-27, 09:57:04,VALID,919.232,VALID,0,VALID,69.5942,VALID,477.361,VALID,25.9604,VALID,56,VALID,1.65586,
2014-10-27, 09:58:04,VALID,919.262,VALID,0,VALID,69.739,VALID,334.357,VALID,25.8433,VALID,129,VALID,2.3375,
2014-10-27, 09:59:04,VALID,919.275,VALID,0,VALID,69.2664,VALID,832.561,VALID,25.6089,VALID,121,VALID,1.91094,
2014-10-27, 10:00:04,VALID,919.252,VALID,0,VALID,68.9919,VALID,800.651,VALID,25.5308,VALID,108,VALID,0.211328,
2014-10-27, 10:01:04,VALID,919.242,VALID,0,VALID,68.3515,VALID,511.098,VALID,25.7261,VALID,109,VALID,0,
2014-10-27, 10:02:04,VALID,919.234,VALID,0,VALID,67.5435,VALID,315.662,VALID,25.98,VALID,136,VALID,0,
2014-10-27, 10:03:04,VALID,919.238,VALID,0,VALID,65.8739,VALID,344.241,VALID,26.1362,VALID,161,VALID,1.5,
2014-10-27, 10:04:04,VALID,919.258,VALID,0,VALID,66.682,VALID,360.143,VALID,25.9604,VALID,143,VALID,0.879297,
2014-10-27, 10:05:04,VALID,919.247,VALID,0,VALID,68.6184,VALID,868.984,VALID,25.9409,VALID,102,VALID,1.05664,
2014-10-27, 10:06:04,VALID,919.206,VALID,0,VALID,69.4569,VALID,771.965,VALID,26.0972,VALID,155,VALID,0.327734,
2014-10-27, 10:07:04,VALID,919.186,VALID,0,VALID,69.6247,VALID,763.584,VALID,26.3316,VALID,100,VALID,0.742578,
2014-10-27, 10:08:04,VALID,919.183,VALID,0,VALID,68.3744,VALID,784.75,VALID,26.1733,VALID,115,VALID,2.00586,
2014-10-27, 10:09:04,VALID,919.167,VALID,0,VALID,62.9465,VALID,821.065,VALID,26.1753,VALID,73,VALID,0.263281,
2014-10-27, 10:10:04,VALID,919.15,VALID,0,VALID,64.4636,VALID,413.756,VALID,26.0757,VALID,67,VALID,1.88555,
2014-10-27, 10:11:04,VALID,919.128,VALID,0,VALID,67.8332,VALID,241.42,VALID,25.9585,VALID,64,VALID,0.246875,
2014-10-27, 10:12:04,VALID,919.136,VALID,0,VALID,67.8865,VALID,207.361,VALID,25.8608,VALID,66,VALID,0.0839844,
2014-10-27, 10:13:04,VALID,919.129,VALID,0,VALID,67.9551,VALID,204.461,VALID,25.7437,VALID,72,VALID,0,
2014-10-27, 10:14:04,VALID,919.123,VALID,0,VALID,70.0668,VALID,190.386,VALID,25.646,VALID,62,VALID,1.87461,
2014-10-27, 10:15:04,VALID,919.14,VALID,0,VALID,71.4009,VALID,178.352,VALID,25.4507,VALID,125,VALID,0.860937,
2014-10-27, 10:16:04,VALID,919.186,VALID,0,VALID,70.4099,VALID,169.327,VALID,25.2945,VALID,84,VALID,1.04219,
2014-10-27, 10:17:04,VALID,919.147,VALID,0,VALID,70.5547,VALID,162.666,VALID,25.0602,VALID,93,VALID,1.74648,
2014-10-27, 10:18:04,VALID,919.107,VALID,0,VALID,71.5534,VALID,155.79,VALID,24.9255,VALID,54,VALID,1.12695,
2014-10-27, 10:19:04,VALID,919.102,VALID,0,VALID,72.4606,VALID,147.839,VALID,24.904,VALID,43,VALID,1.28789,
2014-10-27, 10:20:04,VALID,919.134,VALID,0,VALID,72.4529,VALID,144.186,VALID,24.8669,VALID,66,VALID,1.70508,
2014-10-27, 10:21:04,VALID,919.096,VALID,0,VALID,71.0426,VALID,139.996,VALID,24.6502,VALID,80,VALID,1.28477,
2014-10-27, 10:22:04,VALID,919.09,VALID,0,VALID,73.5888,VALID,134.087,VALID,24.5331,VALID,59,VALID,0.895703,
2014-10-27, 10:23:04,VALID,919.074,VALID,0,VALID,71.6677,VALID,131.401,VALID,24.4355,VALID,25,VALID,3.29102,
2014-10-27, 10:24:04,VALID,919.099,VALID,0,VALID,73.1619,VALID,129.574,VALID,24.3965,VALID,82,VALID,1.6332,